Regional Weather Roundup
Issued by NWS

Home | Current Version | Previous Version | Graphics & Text | Print | Product List | Glossary Off
Versions: 1 2 3 4 5 6 7 8 9 10 11 12 13 14 15 16 17 18 19 20 21 22 23 24 25 26 27 28 29 30 31 32 33 34 35 36 37 38 39 40 41 42 43 44 45 46 47 48 49 50

000
ASUS43 KDTX 301510
RWRMI
MICHIGAN HOURLY REGIONAL WEATHER ROUNDUP
NATIONAL WEATHER SERVICE DETROIT/PONTIAC MI
1100 AM EDT THU JUL 30 2015

NOTE: "FAIR" INDICATES FEW OR NO CLOUDS BELOW 12,000 FEET WITH NO
SIGNIFICANT WEATHER AND/OR OBSTRUCTION TO VISIBILITY.

MIZ047>049-052>055-059>063-066>070-074>076-081>083-301600-
SOUTHEAST LOWER MICHIGAN

CITY           SKY/WX    TMP DP  RH WIND       PRES   REMARKS
ADRIAN         SUNNY     77  61  57 NW7       30.01S
ALMA           SUNNY     78  58  51 W10       29.96
ANN ARBOR      SUNNY     79  61  53 W9        29.98S
BAD AXE        SUNNY     76  61  59 W10       29.91S
DETROIT CITY   SUNNY     80  57  45 W9        29.96S
DETROIT        SUNNY     80  59  48 W10       29.97F
FLINT          SUNNY     79  59  50 W13       29.96S
GROSSE ILE     SUNNY     81  61  50 W9        29.97R
HILLSDALE      SUNNY     78  61  56 W12       30.02S
HOWELL         SUNNY     79  58  49 W13       29.98S

CITY           SKY/WX    TMP DP  RH WIND       PRES   REMARKS
JACKSON        SUNNY     76  61  59 W13       30.00S
LAMBERTVILLE   SUNNY     78  63  60 W8        30.00S
LANSING        SUNNY     78  59  51 W12G18    29.99S
LAPEER         NOT AVBL
MASON          SUNNY     75  59  58 NW12      29.99S
MONROE         SUNNY     78  63  60 W9        29.98S
MT. CLEMENS    SUNNY     80  60  50 W12       29.93S
PONTIAC        SUNNY     78  59  51 W12       29.96S
PORT HOPE        N/A     77  59  53 W13G20    29.87S
PORT HURON     SUNNY     75  61  60 W10       29.94R
TRI CITIES     SUNNY     79  60  52 W15       29.94S
YPSILANTI      SUNNY     82  61  48 W13       29.98S
$$
MIZ043>046-050>051-056>058-064>065-071>073-077>080-301600-
SOUTHWEST LOWER MICHIGAN

CITY           SKY/WX    TMP DP  RH WIND       PRES   REMARKS
BATTLE CREEK   SUNNY     79  60  52 W13       30.02S
BENTON HARBOR  SUNNY     76  62  62 W14G21    30.04R
BIG RAPIDS     SUNNY     77  53  42 W14G21    29.96R
COLDWATER      SUNNY     76  58  53 W10       30.02F
HOLLAND        SUNNY     76  60  57 W13G21    30.02S
GRAND RAPIDS   SUNNY     79  57  46 W13       29.99S
KALAMAZOO      SUNNY     79  58  48 NW14      30.02S
MARSHALL       SUNNY     79  61  53 W7        30.01S
MUSKEGON       SUNNY     76  55  48 NW14G20   30.00R
$$
MIZ016>042-301600-
NORTHERN LOWER MICHIGAN

CITY           SKY/WX    TMP DP  RH WIND       PRES   REMARKS
ALPENA         SUNNY     80  54  40 W12G26    29.82F
BEAVER ISLAND  SUNNY     73  60  62 W15       29.85R
BELLAIRE       SUNNY     76  56  49 W10G21    29.88S
CADILLAC       SUNNY     78  53  42 NW21      29.93S
CHARLEVOIX     SUNNY     75  60  57 W22G29    29.89R
FRANKFORT      SUNNY     73  61  65 W9G16     29.93R
GAYLORD        SUNNY     75  52  44 W20G30    29.88S
GRAYLING       SUNNY     78  53  43 W15G24    29.90S
HARBOR SPRINGS SUNNY     74  62  66 W10G17    29.85R
HOUGHTON LAKE  SUNNY     76  56  49 W17       29.91F
MANISTEE       SUNNY     73  57  56 W14G21    29.95R
OSCODA         MOSUNNY   81  53  37 W16G26    29.85F
PELLSTON       SUNNY     76  54  46 W24G31    29.83S
TRAVERSE CITY  SUNNY     80  54  40 W22G31    29.88S
$$
MIZ007>008-015-301600-
EASTERN UPPER MICHIGAN

CITY           SKY/WX    TMP DP  RH WIND       PRES   REMARKS
KINROSS        CLOUDY    70  55  60 W15G23    29.80R
MACKINAC ISLAN SUNNY     72  56  57 W18G26    29.81R
$$
MIZ004>006-011>014-085-301600-
CENTRAL UPPER MICHIGAN

CITY           SKY/WX    TMP DP  RH WIND       PRES   REMARKS
MANISTIQUE     MOSUNNY   77  55  47 NW10G16   29.82S
ESCANABA       SUNNY     77  54  44 W13G26    29.84R
MENOMINEE      SUNNY     75  55  50 W13G18    29.89S
SAWYER-GWINN   MOSUNNY   73  52  46 NW17G23   29.85R
$$
MIZ001>003-009>011-084-301600-
WESTERN UPPER MICHIGAN

CITY           SKY/WX    TMP DP  RH WIND       PRES   REMARKS
IRON MOUNTAIN  MOSUNNY   76  54  46 W16G26    29.88S
HOUGHTON       PTSUNNY   68  54  60 W22G30    29.84R
COPPER HARBOR    N/A     68  53  58 N20G29    29.80S
IRONWOOD       SUNNY     72  57  60 W18G25    29.91R
$$

ABBREVIATIONS USED IN REMARKS
   TC - TEMPERATURE IN CELSIUS
  WCI - WIND CHILL INDEX
   HX - HEAT INDEX
  VSB - VISIBILITY




USA.gov is the U.S. government's official web portal to all federal, state and local government web resources and services.